Location: Newark
(35.6799°N, 139.7636°E)
Time: 06:18:56
(UTC+00:00)

Transit 2A - Pass Details

Date: 15 December 2019
Orbit: 601 x 957 km, 66.7° (Epoch: 17 January)

Event Time Altitude Azimuth Distance (km) Brightness Sun altitude
Rises 04:22:25 0° 352° (N) 2,881 8.5 25.9°
Reaches altitude 10° 04:25:33 10° 16° (NNE) 2,007 7.7 25.6°
Maximum altitude 04:28:09 15° 52° (NE) 1,733 7.5 25.4°
Drops below altitude 10° 04:30:50 10° 87° (E) 2,088 8.0 25.1°
Sets 04:34:12 0° 110° (ESE) 3,071 9.0 24.8°
